This is the latest recevied weather packets stored in our database for station/object 1NW106. If no packets are shown the sender has not sent any weather packets the latest 10 day(s).
| Time | Temp. | Humidity | Pressure | Rain* | Wind** | Luminosity | Snow |
|---|---|---|---|---|---|---|---|
| 1788116373 | 23.89° C | 99% | 1003.7 hPa | 38.86 mm | - | - | - |
| 1788115773 | 23.89° C | 99% | 1003.8 hPa | 38.86 mm | - | - | - |
| 1788115173 | 23.89° C | 99% | 1003.9 hPa | 38.61 mm | - | - | - |
| 1788114573 | 23.89° C | 99% | 1004 hPa | 38.61 mm | - | - | - |
| 1788113973 | 23.89° C | 99% | 1004.2 hPa | 38.61 mm | - | - | - |
| 1788113373 | 23.89° C | 99% | 1004.3 hPa | 38.61 mm | - | - | - |
| 1788112773 | 23.89° C | 99% | 1004.6 hPa | 38.61 mm | - | - | - |
| 1788112173 | 23.89° C | 99% | 1004.7 hPa | 38.61 mm | - | - | - |
| 1788111587 | 24.44° C | 99% | 1004.8 hPa | 38.61 mm | - | - | - |
| 1788110973 | 24.44° C | 99% | 1005.2 hPa | 38.35 mm | - | - | - |
| 1788110373 | 24.44° C | 99% | 1005.3 hPa | 37.85 mm | - | - | - |
| 1788109773 | 24.44° C | 99% | 1005.3 hPa | 37.34 mm | - | - | - |
| 1788109173 | 24.44° C | 99% | 1005.6 hPa | 36.83 mm | - | - | - |
| 1788108573 | 24.44° C | 99% | 1005.7 hPa | 36.83 mm | - | - | - |
| 1788107973 | 24.44° C | 99% | 1005.7 hPa | 36.83 mm | - | - | - |
| 1788107373 | 24.44° C | 99% | 1005.9 hPa | 36.32 mm | - | - | - |
| 1788106773 | 24.44° C | 99% | 1006 hPa | 35.31 mm | - | - | - |
| 1788106173 | 24.44° C | 99% | 1006.2 hPa | 34.8 mm | - | - | - |
| 1788105573 | 24.44° C | 99% | 1006.5 hPa | 34.8 mm | - | - | - |
| 1788104973 | 24.44° C | 99% | 1006.8 hPa | 34.54 mm | - | - | - |
| 1788104372 | 24.44° C | 99% | 1007.2 hPa | 34.04 mm | - | - | - |
| 1788103772 | 25° C | 99% | 1007.6 hPa | 33.78 mm | - | - | - |
| 1788103173 | 25° C | 99% | 1007.9 hPa | 33.78 mm | - | - | - |
| 1788102573 | 25° C | 99% | 1008 hPa | 33.78 mm | - | - | - |
| 1788101973 | 25° C | 99% | 1008 hPa | 33.78 mm | - | - | - |
* Rain latest hour (hover to see other rain measurements)
** Current wind speed in m/s (hover to see current wind gust speed)